| time (UTC) | temp F | wind direction | speed MPH | gust MPH | rain 1hr in | rain 24hr in | rain mn in | humidity % | barometer mb |
| 20260904194016 | 52 | 351 | 4.0 | 8.0 | 0.00 | 0.00 | 0.00 | 85 | 996.4 |
| 20260904193016 | 53 | 305 | 2.0 | 5.0 | 0.00 | 0.00 | 0.00 | 84 | 996.5 |
| 20260904192016 | 53 | 305 | 2.0 | 3.0 | 0.00 | 0.00 | 0.00 | 83 | 996.5 |
| 20260904191014 | 53 | 305 | 2.0 | 4.0 | 0.00 | 0.00 | 0.00 | 83 | 996.5 |
| 20260904190015 | 53 | 340 | 1.0 | 3.0 | 0.00 | 0.00 | 0.00 | 82 | 996.6 |
| 20260904185014 | 54 | 64 | 0.0 | 2.0 | 0.00 | 0.00 | 0.00 | 82 | 996.6 |
| 20260904184015 | 54 | 64 | 1.0 | 4.0 | 0.00 | 0.00 | 0.00 | 82 | 996.6 |
| 20260904183016 | 54 | 331 | 2.0 | 3.0 | 0.00 | 0.00 | 0.00 | 80 | 996.4 |
| 20260904182452 | 55 | 332 | 1.0 | 3.0 | 0.00 | 0.00 | 0.00 | 80 | 996.4 |
| 20260904181014 | 55 | 319 | 1.0 | 2.0 | 0.00 | 0.00 | 0.00 | 80 | 996.5 |
| 20260904180014 | 55 | 319 | 2.0 | 3.0 | 0.00 | 0.00 | 0.00 | 79 | 996.4 |
| 20260904175015 | 56 | 322 | 1.0 | 3.0 | 0.00 | 0.00 | 0.00 | 79 | 996.4 |
| 20260904174014 | 56 | 322 | 1.0 | 3.0 | 0.00 | 0.00 | 0.00 | 78 | 996.4 |
| 20260904173015 | 56 | 322 | 2.0 | 4.0 | 0.00 | 0.00 | 0.00 | 78 | 996.5 |
| 20260904172009 | 56 | 321 | 3.0 | 5.0 | 0.00 | 0.00 | 0.00 | 78 | 996.5 |
| 20260904171007 | 56 | 326 | 4.0 | 7.0 | 0.00 | 0.00 | 0.00 | 77 | 996.4 |
| 20260904170006 | 57 | 322 | 5.0 | 10.0 | 0.00 | 0.00 | 0.00 | 74 | 996.4 |
| 20260904165447 | 58 | 325 | 5.0 | 9.0 | 0.00 | 0.00 | 0.00 | 73 | 996.5 |
| 20260904164006 | 58 | 310 | 5.0 | 9.0 | 0.00 | 0.00 | 0.00 | 73 | 996.5 |
| 20260904163007 | 58 | 321 | 2.0 | 4.0 | 0.00 | 0.00 | 0.00 | 74 | 996.5 |
| 20260904162006 | 58 | 6 | 1.0 | 2.0 | 0.00 | 0.00 | 0.00 | 76 | 996.5 |
| 20260904161006 | 58 | 65 | 0.0 | 1.0 | 0.00 | 0.00 | 0.00 | 74 | 996.6 |
| 20260904160443 | 58 | 65 | 1.0 | 2.0 | 0.00 | 0.00 | 0.00 | 69 | 996.6 |
| 20260904155004 | 60 | 65 | 1.0 | 4.0 | 0.00 | 0.00 | 0.00 | 66 | 996.7 |
| 20260904154005 | 60 | 34 | 3.0 | 8.0 | 0.00 | 0.00 | 0.00 | 62 | 996.7 |
| 20260904153004 | 61 | 31 | 3.0 | 8.0 | 0.00 | 0.00 | 0.00 | 63 | 996.8 |
| 20260904152004 | 61 | 31 | 4.0 | 11.0 | 0.00 | 0.00 | 0.00 | 64 | 996.8 |
| 20260904151004 | 62 | 9 | 4.0 | 9.0 | 0.00 | 0.00 | 0.00 | 59 | 997.0 |
| 20260904150439 | 63 | 39 | 0.0 | 4.0 | 0.00 | 0.00 | 0.00 | 59 | 997.0 |
| 20260904145004 | 62 | 292 | 1.0 | 2.0 | 0.00 | 0.00 | 0.00 | 60 | 996.9 |
| 20260904144004 | 60 | 178 | 0.0 | 1.0 | 0.00 | 0.00 | 0.00 | 60 | 997.0 |
| 20260904143004 | 60 | 178 | 0.0 | 2.0 | 0.00 | 0.00 | 0.00 | 64 | 997.1 |
| 20260904142001 | 59 | 178 | 1.0 | 4.0 | 0.00 | 0.00 | 0.00 | 63 | 997.1 |
| 20260904141002 | 60 | 158 | 2.0 | 5.0 | 0.00 | 0.00 | 0.00 | 63 | 997.1 |
| 20260904140002 | 60 | 151 | 0.0 | 2.0 | 0.00 | 0.00 | 0.00 | 62 | 997.1 |
| 20260904135002 | 61 | 52 | 2.0 | 5.0 | 0.00 | 0.00 | 0.00 | 58 | 997.2 |
| 20260904134001 | 61 | 204 | 3.0 | 5.0 | 0.00 | 0.00 | 0.00 | 62 | 997.3 |
| 20260904133436 | 62 | 135 | 2.0 | 4.0 | 0.00 | 0.00 | 0.00 | 61 | 997.3 |
| 20260904132933 | 62 | 123 | 3.0 | 6.0 | 0.00 | 0.00 | 0.00 | 63 | 997.5 |
| 20260904131001 | 62 | 59 | 2.0 | 5.0 | 0.00 | 0.00 | 0.00 | 61 | 997.6 |
| 20260904130002 | 63 | 356 | 3.0 | 7.0 | 0.00 | 0.00 | 0.00 | 59 | 997.6 |
| 20260904125442 | 62 | 103 | 3.0 | 8.0 | 0.00 | 0.00 | 0.00 | 59 | 997.6 |
| 20260904124001 | 62 | 139 | 4.0 | 7.0 | 0.00 | 0.00 | 0.00 | 61 | 997.8 |
| 20260904123002 | 60 | 141 | 1.0 | 4.0 | 0.00 | 0.00 | 0.00 | 67 | 997.9 |
| 20260904122001 | 58 | 87 | 0.0 | 2.0 | 0.00 | 0.00 | 0.00 | 69 | 998.1 |
| 20260904121444 | 58 | 87 | 3.0 | 4.0 | 0.00 | 0.00 | 0.00 | 70 | 998.2 |
| 20260904120002 | 59 | 58 | 2.0 | 5.0 | 0.00 | 0.00 | 0.00 | 69 | 998.3 |
| 20260904115003 | 60 | 212 | 1.0 | 5.0 | 0.00 | 0.00 | 0.00 | 69 | 998.4 |
| 20260904114435 | 59 | 141 | 1.0 | 3.0 | 0.00 | 0.00 | 0.00 | 66 | 998.5 |
| 20260904113003 | 58 | 202 | 1.0 | 4.0 | 0.00 | 0.00 | 0.00 | 71 | 998.6 |
| 20260904112001 | 59 | 93 | 2.0 | 5.0 | 0.00 | 0.00 | 0.00 | 70 | 998.7 |
| 20260904111003 | 58 | 146 | 2.0 | 7.0 | 0.00 | 0.00 | 0.00 | 72 | 998.9 |
| 20260904110001 | 58 | 150 | 1.0 | 2.0 | 0.00 | 0.00 | 0.00 | 72 | 998.9 |
| 20260904105001 | 57 | 179 | 2.0 | 5.0 | 0.00 | 0.00 | 0.00 | 71 | 999.0 |
| 20260904104001 | 57 | 137 | 1.0 | 3.0 | 0.00 | 0.00 | 0.00 | 75 | 999.1 |
| 20260904103001 | 57 | 251 | 1.0 | 4.0 | 0.00 | 0.00 | 0.00 | 73 | 999.2 |
| 20260904102001 | 56 | 272 | 2.0 | 6.0 | 0.00 | 0.00 | 0.00 | 74 | 999.5 |
| 20260904101445 | 56 | 254 | 1.0 | 4.0 | 0.00 | 0.00 | 0.00 | 75 | 999.6 |
| 20260904100434 | 56 | 164 | 2.0 | 5.0 | 0.00 | 0.00 | 0.00 | 74 | 999.7 |
| 20260904095001 | 55 | 154 | 2.0 | 4.0 | 0.00 | 0.00 | 0.00 | 74 | 999.8 |
| 20260904094002 | 55 | 142 | 2.0 | 4.0 | 0.00 | 0.00 | 0.00 | 76 | 999.8 |
| 20260904093001 | 54 | 152 | 2.0 | 4.0 | 0.00 | 0.00 | 0.00 | 74 | 999.9 |
| 20260904092002 | 55 | 137 | 3.0 | 6.0 | 0.00 | 0.00 | 0.00 | 78 | 999.8 |
| 20260904091437 | 54 | 153 | 2.0 | 5.0 | 0.00 | 0.00 | 0.00 | 76 | 1000.1 |
| 20260904090002 | 54 | 140 | 1.0 | 4.0 | 0.00 | 0.00 | 0.00 | 78 | 1000.0 |
| 20260904085001 | 54 | 137 | 2.0 | 5.0 | 0.00 | 0.00 | 0.00 | 78 | 999.9 |
| 20260904084927 | 54 | 168 | 1.0 | 4.0 | 0.00 | 0.00 | 0.00 | 77 | 1000.0 |
| 20260904083002 | 54 | 112 | 1.0 | 4.0 | 0.00 | 0.00 | 0.00 | 77 | 1000.0 |
| 20260904082002 | 54 | 32 | 1.0 | 2.0 | 0.00 | 0.00 | 0.00 | 78 | 999.9 |
| 20260904081003 | 53 | 14 | 1.0 | 2.0 | 0.00 | 0.00 | 0.00 | 77 | 1000.0 |
| 20260904080002 | 53 | 295 | 0.0 | 1.0 | 0.00 | 0.00 | 0.00 | 81 | 1000.1 |
| 20260904075002 | 52 | 295 | 0.0 | 1.0 | 0.00 | 0.00 | 0.00 | 82 | 1000.0 |
| 20260904074002 | 51 | 295 | 0.0 | 0.0 | 0.00 | 0.00 | 0.00 | 80 | 1000.2 |
| 20260904073001 | 51 | 295 | 0.0 | 2.0 | 0.00 | 0.00 | 0.00 | 83 | 1000.1 |
| 20260904072001 | 49 | 294 | 1.0 | 3.0 | 0.00 | 0.00 | 0.00 | 84 | 1000.3 |
| 20260904071003 | 47 | 357 | 3.0 | 5.0 | 0.00 | 0.00 | 0.00 | 85 | 1000.5 |
| 20260904065941 | 46 | 2 | 2.0 | 4.0 | 0.00 | 0.00 | 0.00 | 87 | 1000.6 |
| 20260904064941 | 45 | 0 | 3.0 | 5.0 | 0.00 | 0.00 | 0.00 | 88 | 1000.6 |
| 20260904063943 | 44 | 305 | 2.0 | 4.0 | 0.00 | 0.00 | 0.00 | 91 | 1000.8 |
| 20260904062939 | 42 | 310 | 1.0 | 2.0 | 0.00 | 0.00 | 0.00 | 93 | 1000.8 |
| 20260904061939 | 41 | 310 | 1.0 | 5.0 | 0.00 | 0.00 | 0.00 | 93 | 1000.9 |
| 20260904060939 | 40 | 333 | 3.0 | 8.0 | 0.00 | 0.00 | 0.00 | 93 | 1001.1 |
| 20260904055939 | 40 | 318 | 3.0 | 7.0 | 0.00 | 0.00 | 0.00 | 92 | 1001.0 |
| 20260904055419 | 40 | 300 | 3.0 | 5.0 | 0.00 | 0.00 | 0.00 | 93 | 1000.9 |
| 20260904053939 | 39 | 319 | 4.0 | 8.0 | 0.00 | 0.00 | 0.00 | 92 | 1001.1 |
| 20260904052939 | 39 | 314 | 4.0 | 6.0 | 0.00 | 0.00 | 0.00 | 92 | 1001.1 |
| 20260904051939 | 38 | 279 | 2.0 | 5.0 | 0.00 | 0.00 | 0.00 | 92 | 1001.1 |
| 20260904050939 | 38 | 300 | 4.0 | 6.0 | 0.00 | 0.00 | 0.00 | 92 | 1001.2 |
| 20260904050433 | 38 | 287 | 4.0 | 6.0 | 0.00 | 0.00 | 0.00 | 91 | 1001.1 |
| 20260904045414 | 38 | 283 | 4.0 | 8.0 | 0.00 | 0.00 | 0.00 | 91 | 1001.2 |
| 20260904043937 | 38 | 310 | 3.0 | 5.0 | 0.00 | 0.00 | 0.00 | 91 | 1001.2 |
| 20260904042937 | 38 | 326 | 4.0 | 5.0 | 0.00 | 0.00 | 0.00 | 90 | 1001.3 |
| 20260904041936 | 38 | 293 | 2.0 | 5.0 | 0.00 | 0.00 | 0.00 | 90 | 1001.2 |
| 20260904040936 | 38 | 300 | 1.0 | 4.0 | 0.00 | 0.00 | 0.00 | 90 | 1001.3 |
| 20260904035936 | 38 | 300 | 1.0 | 3.0 | 0.00 | 0.00 | 0.00 | 90 | 1001.3 |
| 20260904035850 | 38 | 300 | 3.0 | 5.0 | 0.00 | 0.00 | 0.00 | 90 | 1001.3 |
| 20260904033936 | 39 | 315 | 4.0 | 5.0 | 0.00 | 0.00 | 0.00 | 90 | 1001.3 |
| 20260904032936 | 39 | 324 | 2.0 | 5.0 | 0.00 | 0.00 | 0.00 | 90 | 1001.3 |
| 20260904031937 | 40 | 237 | 2.0 | 3.0 | 0.00 | 0.00 | 0.00 | 91 | 1001.7 |
| 20260904030936 | 40 | 322 | 2.0 | 5.0 | 0.00 | 0.00 | 0.00 | 91 | 1001.5 |
| 20260904025937 | 40 | 350 | 2.0 | 4.0 | 0.00 | 0.00 | 0.00 | 91 | 1001.5 |
| 20260904024929 | 40 | 337 | 4.0 | 8.0 | 0.00 | 0.00 | 0.00 | 91 | 1001.7 |
| 20260904023930 | 40 | 323 | 5.0 | 9.0 | 0.00 | 0.00 | 0.00 | 91 | 1001.8 |
| 20260904022929 | 40 | 300 | 4.0 | 9.0 | 0.00 | 0.00 | 0.00 | 90 | 1001.8 |
| 20260904021929 | 40 | 316 | 3.0 | 5.0 | 0.00 | 0.00 | 0.00 | 90 | 1001.7 |
| 20260904021412 | 40 | 345 | 3.0 | 8.0 | 0.00 | 0.00 | 0.00 | 90 | 1001.9 |
| 20260904015930 | 40 | 331 | 2.0 | 8.0 | 0.00 | 0.00 | 0.00 | 90 | 1002.0 |
| 20260904014930 | 41 | 327 | 3.0 | 8.0 | 0.00 | 0.00 | 0.00 | 89 | 1002.1 |
| 20260904013929 | 41 | 310 | 1.0 | 5.0 | 0.00 | 0.00 | 0.00 | 89 | 1002.1 |
| 20260904012930 | 41 | 305 | 1.0 | 3.0 | 0.00 | 0.00 | 0.00 | 90 | 1002.1 |
| 20260904011929 | 41 | 254 | 3.0 | 5.0 | 0.00 | 0.00 | 0.00 | 90 | 1002.2 |
| 20260904010930 | 41 | 305 | 4.0 | 8.0 | 0.00 | 0.00 | 0.00 | 90 | 1002.3 |
| 20260904010405 | 42 | 317 | 4.0 | 7.0 | 0.00 | 0.00 | 0.00 | 90 | 1002.4 |
| 20260904004930 | 42 | 322 | 2.0 | 5.0 | 0.00 | 0.00 | 0.00 | 90 | 1002.4 |
| 20260904003929 | 42 | 314 | 2.0 | 4.0 | 0.00 | 0.00 | 0.00 | 90 | 1002.5 |
| 20260904002929 | 42 | 327 | 4.0 | 6.0 | 0.00 | 0.00 | 0.00 | 91 | 1002.6 |
| 20260904001928 | 43 | 263 | 4.0 | 8.0 | 0.00 | 0.00 | 0.00 | 91 | 1002.8 |
| 20260904001408 | 43 | 300 | 3.0 | 7.0 | 0.00 | 0.00 | 0.00 | 91 | 1002.9 |
| 20260903235928 | 43 | 322 | 4.0 | 7.0 | 0.00 | 0.00 | 0.00 | 91 | 1003.0 |
| 20260903235402 | 43 | 337 | 3.0 | 5.0 | 0.00 | 0.00 | 0.00 | 91 | 1003.0 |
| 20260903233928 | 43 | 348 | 3.0 | 5.0 | 0.00 | 0.00 | 0.00 | 91 | 1003.1 |
| 20260903232929 | 42 | 291 | 4.0 | 6.0 | 0.00 | 0.00 | 0.00 | 91 | 1003.0 |
| 20260903231929 | 42 | 300 | 5.0 | 8.0 | 0.00 | 0.00 | 0.00 | 91 | 1003.0 |
| 20260903231405 | 42 | 293 | 4.0 | 6.0 | 0.00 | 0.00 | 0.00 | 90 | 1003.1 |
| 20260903225928 | 42 | 281 | 4.0 | 5.0 | 0.00 | 0.00 | 0.00 | 90 | 1003.2 |
| 20260903224922 | 43 | 274 | 3.0 | 5.0 | 0.00 | 0.00 | 0.00 | 90 | 1003.2 |
| 20260903223923 | 43 | 335 | 2.0 | 3.0 | 0.00 | 0.00 | 0.00 | 90 | 1003.2 |
| 20260903222922 | 43 | 287 | 3.0 | 5.0 | 0.00 | 0.00 | 0.00 | 90 | 1003.2 |
| 20260903221922 | 43 | 327 | 3.0 | 5.0 | 0.00 | 0.00 | 0.00 | 90 | 1003.3 |
| 20260903221405 | 43 | 315 | 3.0 | 5.0 | 0.00 | 0.00 | 0.00 | 89 | 1003.3 |
| 20260903215922 | 43 | 352 | 2.0 | 5.0 | 0.00 | 0.00 | 0.00 | 89 | 1003.3 |
| 20260903214921 | 43 | 300 | 2.0 | 4.0 | 0.00 | 0.00 | 0.00 | 88 | 1003.4 |
| 20260903213920 | 43 | 324 | 3.0 | 4.0 | 0.00 | 0.00 | 0.00 | 88 | 1003.4 |
| 20260903212920 | 43 | 256 | 2.0 | 4.0 | 0.00 | 0.00 | 0.00 | 88 | 1003.4 |
| 20260903211914 | 44 | 291 | 2.0 | 4.0 | 0.00 | 0.00 | 0.00 | 87 | 1003.4 |
| 20260903210914 | 44 | 282 | 2.0 | 4.0 | 0.00 | 0.00 | 0.00 | 87 | 1003.3 |
| 20260903205914 | 44 | 300 | 2.0 | 4.0 | 0.00 | 0.00 | 0.00 | 87 | 1003.3 |
| 20260903204912 | 44 | 290 | 2.0 | 4.0 | 0.00 | 0.00 | 0.00 | 86 | 1003.3 |
| 20260903203910 | 45 | 310 | 1.0 | 3.0 | 0.00 | 0.00 | 0.00 | 86 | 1003.2 |
| 20260903202911 | 45 | 329 | 1.0 | 2.0 | 0.00 | 0.00 | 0.00 | 85 | 1003.1 |
| 20260903201910 | 45 | 329 | 1.0 | 3.0 | 0.00 | 0.00 | 0.00 | 85 | 1003.2 |
| 20260903200911 | 46 | 305 | 2.0 | 4.0 | 0.00 | 0.00 | 0.00 | 85 | 1003.1 |
| 20260903195911 | 46 | 310 | 2.0 | 3.0 | 0.00 | 0.00 | 0.00 | 85 | 1003.3 |
| 20260903194904 | 46 | 300 | 3.0 | 5.0 | 0.00 | 0.00 | 0.00 | 84 | 1003.4 |